| time (UTC) | temp F | wind direction | speed MPH | gust MPH | rain 1hr in | rain 24hr in | rain mn in | humidity % | barometer mb |
| 20260906015359 | 91 | 148 | 3.0 | 10.0 | 0.00 | 0.00 | 0.00 | 53 | 1008.3 |
| 20260906014420 | 91 | 148 | 2.0 | 8.0 | 0.00 | 0.00 | 0.00 | 52 | 1008.3 |
| 20260906013433 | 92 | 102 | 3.0 | 8.0 | 0.00 | 0.00 | 0.00 | 51 | 1008.2 |
| 20260906012445 | 92 | 117 | 3.0 | 9.0 | 0.00 | 0.00 | 0.00 | 49 | 1008.2 |
| 20260906011430 | 93 | 144 | 3.0 | 11.0 | 0.00 | 0.00 | 0.00 | 49 | 1008.1 |
| 20260906010424 | 94 | 109 | 3.0 | 11.0 | 0.00 | 0.00 | 0.00 | 47 | 1008.0 |
| 20260906005406 | 94 | 55 | 2.0 | 9.0 | 0.00 | 0.00 | 0.00 | 46 | 1008.0 |
| 20260906004341 | 95 | 194 | 3.0 | 8.0 | 0.00 | 0.00 | 0.00 | 42 | 1007.8 |
| 20260906003331 | 96 | 123 | 2.0 | 6.0 | 0.00 | 0.00 | 0.00 | 40 | 1007.8 |
| 20260906002311 | 96 | 159 | 2.0 | 6.0 | 0.00 | 0.00 | 0.00 | 40 | 1007.6 |
| 20260906001242 | 96 | 159 | 2.0 | 5.0 | 0.00 | 0.00 | 0.00 | 39 | 1007.6 |
| 20260906000256 | 96 | 83 | 3.0 | 7.0 | 0.00 | 0.00 | 0.00 | 39 | 1007.6 |
| 20260905234117 | 98 | 161 | 2.0 | 7.0 | 0.00 | 0.00 | 0.00 | 39 | 1007.6 |
| 20260905233129 | 98 | 149 | 3.0 | 7.0 | 0.00 | 0.00 | 0.00 | 38 | 1007.6 |
| 20260905230935 | 99 | 93 | 2.0 | 8.0 | 0.00 | 0.00 | 0.00 | 37 | 1007.7 |
| 20260905225932 | 100 | 109 | 1.0 | 6.0 | 0.00 | 0.00 | 0.00 | 37 | 1007.7 |
| 20260905224941 | 99 | 67 | 2.0 | 8.0 | 0.00 | 0.00 | 0.00 | 37 | 1007.6 |
| 20260905223909 | 99 | 100 | 3.0 | 9.0 | 0.00 | 0.00 | 0.00 | 37 | 1007.6 |
| 20260905222836 | 99 | 81 | 2.0 | 9.0 | 0.00 | 0.00 | 0.00 | 37 | 1007.7 |
| 20260905221828 | 99 | 92 | 3.0 | 9.0 | 0.00 | 0.00 | 0.00 | 38 | 1007.8 |
| 20260905220755 | 99 | 77 | 3.0 | 9.0 | 0.00 | 0.00 | 0.00 | 37 | 1007.9 |
| 20260905215815 | 100 | 108 | 2.0 | 9.0 | 0.00 | 0.00 | 0.00 | 37 | 1007.9 |
| 20260905214807 | 99 | 194 | 1.0 | 9.0 | 0.00 | 0.00 | 0.00 | 39 | 1007.9 |
| 20260905213752 | 99 | 158 | 3.0 | 8.0 | 0.00 | 0.00 | 0.00 | 38 | 1008.0 |
| 20260905212749 | 100 | 80 | 2.0 | 6.0 | 0.00 | 0.00 | 0.00 | 37 | 1007.9 |
| 20260905211808 | 101 | 200 | 2.0 | 6.0 | 0.00 | 0.00 | 0.00 | 37 | 1007.9 |
| 20260905210750 | 100 | 197 | 3.0 | 11.0 | 0.00 | 0.00 | 0.00 | 35 | 1008.0 |
| 20260905205719 | 101 | 138 | 4.0 | 11.0 | 0.00 | 0.00 | 0.00 | 36 | 1008.2 |
| 20260905204721 | 101 | 150 | 2.0 | 7.0 | 0.00 | 0.00 | 0.00 | 37 | 1008.4 |
| 20260905202619 | 100 | 168 | 3.0 | 10.0 | 0.00 | 0.00 | 0.00 | 39 | 1008.8 |
| 20260905201637 | 99 | 223 | 1.0 | 6.0 | 0.00 | 0.00 | 0.00 | 40 | 1009.0 |
| 20260905195457 | 99 | 217 | 3.0 | 8.0 | 0.00 | 0.00 | 0.00 | 40 | 1009.4 |
| 20260905194456 | 98 | 138 | 3.0 | 10.0 | 0.00 | 0.00 | 0.00 | 39 | 1009.6 |
| 20260905193458 | 98 | 143 | 2.0 | 10.0 | 0.00 | 0.00 | 0.00 | 39 | 1009.7 |
| 20260905192501 | 97 | 253 | 2.0 | 7.0 | 0.00 | 0.00 | 0.00 | 43 | 1009.9 |
| 20260905190314 | 97 | 174 | 3.0 | 9.0 | 0.00 | 0.00 | 0.00 | 42 | 1010.1 |
| 20260905185253 | 96 | 99 | 3.0 | 12.0 | 0.00 | 0.00 | 0.00 | 44 | 1010.3 |
| 20260905184224 | 96 | 181 | 3.0 | 12.0 | 0.00 | 0.00 | 0.00 | 44 | 1010.5 |
| 20260905183222 | 96 | 205 | 3.0 | 10.0 | 0.00 | 0.00 | 0.00 | 43 | 1010.8 |
| 20260905182203 | 95 | 286 | 3.0 | 9.0 | 0.00 | 0.00 | 0.00 | 45 | 1010.9 |
| 20260905181138 | 95 | 167 | 2.0 | 13.0 | 0.00 | 0.00 | 0.00 | 47 | 1011.2 |
| 20260905180143 | 95 | 198 | 4.0 | 13.0 | 0.00 | 0.00 | 0.00 | 46 | 1011.3 |
| 20260905175201 | 95 | 202 | 3.0 | 12.0 | 0.00 | 0.00 | 0.00 | 48 | 1011.5 |
| 20260905173106 | 93 | 134 | 2.0 | 11.0 | 0.00 | 0.00 | 0.00 | 52 | 1011.7 |
| 20260905172055 | 93 | 211 | 3.0 | 9.0 | 0.00 | 0.00 | 0.00 | 53 | 1011.9 |
| 20260905171100 | 93 | 159 | 3.0 | 9.0 | 0.00 | 0.00 | 0.00 | 50 | 1011.9 |
| 20260905170033 | 93 | 97 | 3.0 | 11.0 | 0.00 | 0.00 | 0.00 | 52 | 1012.0 |
| 20260905163916 | 91 | 221 | 2.0 | 10.0 | 0.00 | 0.00 | 0.00 | 55 | 1012.1 |
| 20260905162906 | 90 | 212 | 3.0 | 8.0 | 0.00 | 0.00 | 0.00 | 59 | 1012.2 |
| 20260905161858 | 90 | 153 | 1.0 | 6.0 | 0.00 | 0.00 | 0.00 | 58 | 1012.2 |
| 20260905160913 | 89 | 205 | 1.0 | 7.0 | 0.00 | 0.00 | 0.00 | 64 | 1012.2 |
| 20260905155915 | 88 | 250 | 1.0 | 7.0 | 0.00 | 0.00 | 0.00 | 65 | 1012.2 |
| 20260905154842 | 88 | 239 | 1.0 | 5.0 | 0.00 | 0.00 | 0.00 | 66 | 1012.2 |
| 20260905153853 | 87 | 244 | 1.0 | 5.0 | 0.00 | 0.00 | 0.00 | 69 | 1012.2 |
| 20260905152846 | 86 | 163 | 2.0 | 10.0 | 0.00 | 0.00 | 0.00 | 70 | 1012.1 |
| 20260905151840 | 86 | 205 | 3.0 | 10.0 | 0.00 | 0.00 | 0.00 | 71 | 1012.1 |
| 20260905150815 | 86 | 186 | 2.0 | 7.0 | 0.00 | 0.00 | 0.00 | 74 | 1012.2 |
| 20260905145756 | 85 | 226 | 2.0 | 10.0 | 0.00 | 0.00 | 0.00 | 76 | 1012.2 |
| 20260905144820 | 84 | 216 | 2.0 | 10.0 | 0.00 | 0.00 | 0.00 | 78 | 1012.1 |
| 20260905143825 | 83 | 211 | 2.0 | 8.0 | 0.00 | 0.00 | 0.00 | 81 | 1012.0 |
| 20260905141701 | 81 | 178 | 1.0 | 7.0 | 0.00 | 0.00 | 0.00 | 85 | 1012.0 |
| 20260905140654 | 81 | 175 | 2.0 | 6.0 | 0.00 | 0.00 | 0.00 | 86 | 1012.0 |
| 20260905135638 | 80 | 198 | 2.0 | 6.0 | 0.00 | 0.00 | 0.00 | 90 | 1011.8 |
| 20260905133531 | 78 | 181 | 1.0 | 5.0 | 0.00 | 0.00 | 0.00 | 92 | 1011.8 |
| 20260905132458 | 78 | 208 | 1.0 | 5.0 | 0.00 | 0.00 | 0.00 | 92 | 1011.7 |
| 20260905131507 | 78 | 173 | 1.0 | 4.0 | 0.00 | 0.00 | 0.00 | 93 | 1011.5 |
| 20260905130519 | 77 | 196 | 1.0 | 4.0 | 0.00 | 0.00 | 0.00 | 93 | 1011.4 |
| 20260905124436 | 77 | 153 | 1.0 | 4.0 | 0.00 | 0.00 | 0.00 | 94 | 1011.1 |
| 20260905123408 | 76 | 193 | 0.0 | 2.0 | 0.00 | 0.00 | 0.00 | 94 | 1011.1 |
| 20260905121301 | 76 | 196 | 0.0 | 0.0 | 0.00 | 0.00 | 0.00 | 93 | 1011.0 |
| 20260905120237 | 76 | 196 | 0.0 | 0.0 | 0.00 | 0.00 | 0.00 | 93 | 1011.0 |
| 20260905114027 | 76 | 205 | 1.0 | 3.0 | 0.00 | 0.00 | 0.00 | 93 | 1010.7 |
| 20260905113018 | 76 | 191 | 0.0 | 2.0 | 0.00 | 0.00 | 0.00 | 92 | 1010.7 |
| 20260905111949 | 76 | 191 | 0.0 | 2.0 | 0.00 | 0.00 | 0.00 | 92 | 1010.6 |
| 20260905110925 | 76 | 191 | 0.0 | 0.0 | 0.00 | 0.00 | 0.00 | 91 | 1010.6 |
| 20260905105906 | 76 | 191 | 0.0 | 2.0 | 0.00 | 0.00 | 0.00 | 91 | 1010.6 |
| 20260905104856 | 76 | 191 | 0.0 | 2.0 | 0.00 | 0.00 | 0.00 | 91 | 1010.5 |
| 20260905101702 | 77 | 167 | 1.0 | 4.0 | 0.00 | 0.00 | 0.00 | 91 | 1010.3 |
| 20260905095541 | 77 | 198 | 0.0 | 0.0 | 0.00 | 0.00 | 0.00 | 91 | 1010.4 |
| 20260905092253 | 77 | 171 | 2.0 | 7.0 | 0.00 | 0.00 | 0.00 | 90 | 1010.2 |
| 20260905090210 | 77 | 167 | 2.0 | 6.0 | 0.00 | 0.00 | 0.00 | 89 | 1010.3 |
| 20260905085227 | 78 | 165 | 2.0 | 6.0 | 0.00 | 0.00 | 0.00 | 89 | 1010.4 |
| 20260905083106 | 78 | 161 | 3.0 | 10.0 | 0.00 | 0.00 | 0.00 | 88 | 1010.4 |
| 20260905075828 | 78 | 170 | 2.0 | 6.0 | 0.00 | 0.00 | 0.00 | 87 | 1010.7 |
| 20260905073706 | 79 | 196 | 2.0 | 7.0 | 0.00 | 0.00 | 0.00 | 86 | 1010.7 |
| 20260905072637 | 79 | 193 | 3.0 | 7.0 | 0.00 | 0.00 | 0.00 | 85 | 1010.9 |
| 20260905071612 | 79 | 123 | 3.0 | 9.0 | 0.00 | 0.00 | 0.00 | 85 | 1010.9 |
| 20260905070543 | 79 | 109 | 3.0 | 9.0 | 0.00 | 0.00 | 0.00 | 85 | 1011.0 |
| 20260905065600 | 79 | 169 | 3.0 | 8.0 | 0.00 | 0.00 | 0.00 | 85 | 1011.0 |
| 20260905064603 | 79 | 179 | 3.0 | 10.0 | 0.00 | 0.00 | 0.00 | 84 | 1011.0 |
| 20260905063622 | 79 | 169 | 2.0 | 10.0 | 0.00 | 0.00 | 0.00 | 84 | 1011.1 |
| 20260905062632 | 79 | 172 | 3.0 | 7.0 | 0.00 | 0.00 | 0.00 | 83 | 1011.1 |
| 20260905061612 | 80 | 175 | 3.0 | 9.0 | 0.00 | 0.00 | 0.00 | 83 | 1011.0 |
| 20260905060608 | 80 | 166 | 3.0 | 9.0 | 0.00 | 0.00 | 0.00 | 82 | 1011.0 |
| 20260905055546 | 80 | 158 | 3.0 | 9.0 | 0.00 | 0.00 | 0.00 | 82 | 1011.0 |
| 20260905054603 | 80 | 142 | 3.0 | 8.0 | 0.00 | 0.00 | 0.00 | 81 | 1011.0 |
| 20260905052447 | 80 | 184 | 3.0 | 6.0 | 0.00 | 0.00 | 0.00 | 80 | 1011.0 |
| 20260905051431 | 80 | 141 | 2.0 | 6.0 | 0.00 | 0.00 | 0.00 | 79 | 1011.1 |
| 20260905050443 | 81 | 139 | 2.0 | 6.0 | 0.00 | 0.00 | 0.00 | 79 | 1011.2 |
| 20260905044322 | 81 | 167 | 3.0 | 9.0 | 0.00 | 0.00 | 0.00 | 78 | 1011.2 |
| 20260905043322 | 81 | 169 | 3.0 | 9.0 | 0.00 | 0.00 | 0.00 | 77 | 1011.2 |
| 20260905042250 | 81 | 155 | 2.0 | 8.0 | 0.00 | 0.00 | 0.00 | 77 | 1011.1 |
| 20260905041250 | 81 | 159 | 2.0 | 7.0 | 0.00 | 0.00 | 0.00 | 76 | 1011.1 |
| 20260905035120 | 81 | 169 | 2.0 | 7.0 | 0.00 | 0.00 | 0.00 | 74 | 1011.1 |
| 20260905034127 | 82 | 175 | 1.0 | 6.0 | 0.00 | 0.00 | 0.00 | 73 | 1011.1 |
| 20260905033058 | 82 | 187 | 2.0 | 7.0 | 0.00 | 0.00 | 0.00 | 73 | 1011.0 |
| 20260905032024 | 82 | 150 | 2.0 | 7.0 | 0.00 | 0.00 | 0.00 | 72 | 1011.1 |
| 20260905031000 | 82 | 198 | 1.0 | 7.0 | 0.00 | 0.00 | 0.00 | 71 | 1010.9 |
| 20260905025928 | 82 | 107 | 1.0 | 6.0 | 0.00 | 0.00 | 0.00 | 70 | 1010.9 |
| 20260905023757 | 83 | 131 | 1.0 | 5.0 | 0.00 | 0.00 | 0.00 | 69 | 1010.5 |
| 20260905022731 | 83 | 121 | 1.0 | 4.0 | 0.00 | 0.00 | 0.00 | 68 | 1010.5 |
| 20260905021706 | 83 | 140 | 1.0 | 4.0 | 0.00 | 0.00 | 0.00 | 68 | 1010.4 |
| 20260905020731 | 84 | 127 | 1.0 | 4.0 | 0.00 | 0.00 | 0.00 | 67 | 1010.3 |